Home > Weather > Wittmund > Past weeks

Flag for Germany Past Weather in Wittmund, Lower Saxony, Germany — Yesterday and Last 2 Weeks

Now
57 °F

Partly sunny.


Feels Like: 57 °F
Forecast: 47 / 60 °F
Wind: No wind

Location: Wittmundhaven

Current Time: May 25, 2016 at 6:58:05 PM

Latest Report: May 25, 2016 at 6:20 PM


Visibility: N/A

Pressure: 29.98 "Hg

Humidity: 77%

Dew Point: 50 °F

Location of WittmundLocation

Past Weather in Wittmund — Graph

°F

Wittmund Temperature Yesterday

Maximum temperature yesterday: 54 °F (at 4:20 PM)
Minimum temperature yesterday: 50 °F (at 1:20 AM)
Average temperature yesterday: 51 °F

High & Low Weather Summary for the Past Weeks

 TemperatureHumidityPressure
High75 °F (May 11, 1:20 PM)100% (May 20, 4:20 PM)30.07 "Hg (May 20, 4:20 PM)
Low41 °F (May 16, 1:20 AM)34% (May 11, 2:20 PM)29.62 "Hg (May 12, 5:20 PM)
Average55 °F75%29.86 "Hg
* Reported May 10 5:20 PM — May 25 5:20 PM, Wittmund, Weather by CustomWeather, © 2016

Note: Actual official high and low records may vary slightly from our data, if they occured in-between our weather recording intervals... More about our weather records

Advertising

Wittmund Weather History for the Previous 24 Hours

Scroll right to see more
 ConditionsComfort  
Time TempWeatherWind HumidityBarometerVisibility
5:20 PM
Wed, May 25
57 °FPartly sunny.5 mph77%29.98 "HgN/A
4:20 PM57 °FPartly sunny.5 mph77%29.98 "HgN/A
3:20 PM57 °FDrizzle. Partly sunny.3 mph77%29.98 "HgN/A
2:49 PM57 °FPartly sunny.2 mph77%29.95 "HgN/A
2:20 PM57 °FPartly sunny.6 mph77%29.95 "HgN/A
1:20 PM57 °FPartly sunny.6 mph82%29.95 "HgN/A
12:20 PM55 °FFog.7 mph88%29.95 "Hg3 mi
11:20 AM54 °FDrizzle. Fog.7 mph94%29.95 "Hg2 mi
10:45 AM52 °FDrizzle. Fog.7 mph100%29.95 "Hg2 mi
10:20 AM54 °FDrizzle. Fog.7 mph94%29.95 "Hg2 mi
9:20 AM52 °FDrizzle. Fog.6 mph100%29.95 "Hg2 mi
9:01 AM52 °FDrizzle. Fog.6 mph100%29.95 "Hg1 mi
8:20 AM52 °FFog.6 mph94%29.95 "Hg1 mi
8:01 AM52 °FFog.6 mph94%29.95 "Hg1 mi
7:20 AM52 °FFog.3 mph94%29.95 "Hg1 mi
7:01 AM52 °FFog.5 mph94%29.92 "Hg2 mi
6:20 AM52 °FPartly sunny.5 mph94%29.92 "Hg4 mi
5:20 AM52 °FPassing clouds.5 mph88%29.92 "Hg5 mi
5:00 AM50 °FPassing clouds.5 mph94%29.92 "Hg5 mi
4:20 AM50 °FCool.3 mph94%29.92 "Hg4 mi
3:20 AM50 °FCool.5 mph94%29.92 "Hg4 mi
2:20 AM50 °FCool.3 mph94%29.95 "Hg4 mi
1:20 AM50 °FCool.5 mph94%29.95 "Hg4 mi
12:20 AM52 °FCool.5 mph88%29.95 "Hg4 mi
11:20 PM
Tue, May 24
52 °FCool.3 mph88%29.95 "Hg4 mi
10:20 PM52 °FCool.5 mph88%29.95 "Hg4 mi
9:20 PM52 °FCool.6 mph88%29.95 "Hg4 mi
8:20 PM52 °FCool.8 mph88%29.95 "Hg4 mi
7:20 PM52 °FCool.7 mph88%29.95 "Hg4 mi
6:20 PM52 °FPartly sunny.9 mph94%29.95 "Hg5 mi
Weather by CustomWeather, © 2016

See weather overviewHow to use our weather pages